Regional Weather Roundup
Issued by NWS Memphis, TN

Home | Current Version | Previous Version | Text Only | Print | Product List | Glossary On
Versions: 1 2 3 4 5 6 7 8 9 10 11 12 13 14 15 16 17 18 19 20 21 22 23 24 25 26 27 28 29 30 31 32 33 34 35 36 37 38 39 40 41 42 43 44 45 46 47 48 49 50
000
ASUS44 KMEG 262310
RWRMEG
MEMPHIS CWA HOURLY WEATHER ROUNDUP
NATIONAL WEATHER SERVICE MEMPHIS TN
500 PM CST THU FEB 26 2015

...WEST TENNESSEE...

CITY           SKY/WX    TMP DP  RH WIND       PRES   REMARKS
MEMPHIS INTL   CLOUDY    31  24  75 N13G21    30.27R WCI  21
NWS MEMPHIS      N/A     31 N/A N/A MISG        N/A
JACKSON        CLOUDY    31  23  72 NW20      30.24R WCI  19
LEXINGTON      CLOUDY    36  21  55 NW13      30.17R WCI  27
SAVANNAH       CLOUDY    39  25  56 NW10      30.17R WCI  32
DYERSBURG      CLOUDY    28  10  47 N16G22    30.29R WCI  17
UNION CITY     CLOUDY    25  21  86 N16       30.25R WCI  12
PARIS          CLOUDY    25  21  86 N10       30.23R WCI  15


...EASTERN ARKANSAS...

CITY           SKY/WX    TMP DP  RH WIND       PRES   REMARKS
JONESBORO      MOCLDY    30  18  60 N12       30.30R WCI  20
WEST MEMPHIS   CLOUDY    31  24  75 N15       30.28R WCI  20
BATESVILLE     SUNNY     30  16  55 NW8       30.31R WCI  23
NEWPORT        MOSUNNY   32  18  56 N18       30.32R WCI  20
WALNUT RIDGE   MOSUNNY   30  16  55 N14       30.32R WCI  20
BLYTHEVILLE    CLOUDY    30  22  72 N23       30.29R WCI  17
SEARCY         MOSUNNY   34  17  50 N14G20    30.32R WCI  25
STUTTGART      CLOUDY    34  25  69 N16       30.29R WCI  23
PINE BLUFF     PTSUNNY   36  25  64 N12       30.30R WCI  28
MONTICELLO     CLOUDY    36  27  69 NW6       30.27R WCI  31


...NORTH MISSISSIPPI...

CITY           SKY/WX    TMP DP  RH WIND       PRES   REMARKS
TUPELO         CLOUDY    39  32  76 VRB6      30.18R WCI  35
OXFORD         CLOUDY    34  27  75 NW8       30.23R WCI  27
OLIVE BRANCH   CLOUDY    30  30 100 N14G21    30.25R WCI  20
TUNICA         CLOUDY    32  28  86 N17       30.29R WCI  21
CLARKSDALE     CLOUDY    32  28  86 N12G18    30.28R WCI  23
CORINTH        CLOUDY    41  28  60 NW12G18   30.16R
GREENWOOD        N/A    N/A N/A N/A MISG      30.24R
COLUMBUS       CLEAR     39  31  72 NW7       30.17S WCI  34
STARKVILLE     FAIR      36  32  87 NW6       30.19R WCI  31
GOLDEN TRIANGL MOCLDY    37  30  75 NW9       30.17  WCI  31


...SOUTHEAST MISSOURI...

CITY           SKY/WX    TMP DP  RH WIND       PRES   REMARKS
WEST PLAINS    PTSUNNY   22  10  60 N9        30.31R WCI  12
POPLAR BLUFF   CLOUDY    28  14  55 N15       30.30R WCI  16
CAPE GIRARDEAU CLOUDY    26  16  65 N18       30.31R WCI  13


...NORTHWEST ALABAMA...

CITY           SKY/WX    TMP DP  RH WIND       PRES   REMARKS
MUSCLE SHOALS  MOCLDY    43  29  57 W9        30.13R


...MIDDLE TENNESSEE...

CITY           SKY/WX    TMP DP  RH WIND       PRES   REMARKS
NASHVILLE      CLOUDY    36  22  56 NW10G20   30.15R WCI  28
CLARKSVILLE    CLOUDY    30  24  78 N15       30.19R WCI  19
COLUMBIA         N/A     39  23  52 N9        30.11R WCI  33


...WESTERN KENTUCKY...

CITY           SKY/WX    TMP DP  RH WIND       PRES   REMARKS
PADUCAH        CLOUDY    27  18  69 N14       30.27R WCI  16
FORT CAMPBELL  FLURRIES  29  24  81 NW10      30.20R WCI  20


...CENTRAL ARKANSAS...

CITY           SKY/WX    TMP DP  RH WIND       PRES   REMARKS
LITTLE ROCK    PTSUNNY   37  19  48 N9        30.31R WCI  30


SKY/WX REPORTED AS FAIR MEANS FEW OR NO CLOUDS BELOW
12 THOUSAND FEET.




USA.gov is the U.S. government's official web portal to all federal, state and local government web resources and services.